Miscellaneous Local Product
Issued by NWS Hastings, NE

Home | Current Version | Previous Version | Text Only | Print | Product List | Glossary Off
Versions: 1 2 3 4 5 6 7 8 9 10 11 12 13 14 15 16 17 18 19 20 21 22 23 24 25 26 27 28 29 30 31 32 33 34 35 36 37 38 39 40 41 42 43 44 45 46 47 48 49 50

000
AXUS43 KGID 151402
MISGRI

GID CWA HOURLY WEATHER ROUNDUP
NATIONAL WEATHER SERVICE HASTINGS NE
900 AM CDT MON SEP 15 2014

NOTE: "FAIR" INDICATES FEW OR NO CLOUDS BELOW 12,000 FEET WITH NO
SIGNIFICANT WEATHER AND/OR OBSTRUCTIONS TO VISIBILITY.

...SOUTH CENTRAL NEBRASKA...

CITY           SKY/WX    TMP DP  RH WIND       PRES   REMARKS
GRAND ISLAND   CLOUDY    52  46  80 NE12      30.22R
HASTINGS       CLOUDY    52  46  80 NE17      30.20R
KEARNEY        CLOUDY    52  46  82 N17G23    30.22R
ORD            MOSUNNY   51  44  77 N9        30.24S
YORK           CLOUDY    52  48  87 N20G28    30.19R
AURORA         CLOUDY    51  47  86 N13G22    30.20R
LEXINGTON      MOSUNNY   51  47  86 N15G21    30.24R
HOLDREGE       CLOUDY    51  47  86 N13       30.21R
HEBRON         CLOUDY    60  55  85 N12G20    30.15R

...NEBRASKA PANHANDLE...

CITY           SKY/WX    TMP DP  RH WIND       PRES   REMARKS
CHADRON        SUNNY     38  36  92 W3        30.32S
ALLIANCE       SUNNY     40  37  89 NW3       30.31S
SCOTTSBLUFF    SUNNY     41  39  93 NW6       30.33R
SIDNEY         CLOUDY    44  40  85 NW8       30.33R

...WESTERN AND NORTH CENTRAL NEBRASKA...

CITY           SKY/WX    TMP DP  RH WIND       PRES   REMARKS
VALENTINE      SUNNY     50  40  68 N7        30.30R
AINSWORTH      SUNNY     46  41  84 CALM      30.29S
ONEILL         SUNNY     50  46  87 N7        30.28R
BROKEN BOW     PTSUNNY   51  41  68 N12       30.25R
IMPERIAL       CLOUDY    52  44  74 N15       30.28R
NORTH PLATTE   MOSUNNY   50  40  68 NE10      30.27R
MCCOOK         CLOUDY    53  46  77 N10       30.25R

...EASTERN NEBRASKA...

CITY           SKY/WX    TMP DP  RH WIND       PRES   REMARKS
NORFOLK        CLOUDY    52  46  80 N10       30.23R
SO SIOUX CITY  CLOUDY    53  47  79 NE13      30.21S
TEKAMAH        CLOUDY    55  49  80 N17G28    30.18R
ALBION         MOSUNNY   51  45  81 NE9       30.23S
OMAHA EPPLEY   CLOUDY    55  49  80 N17G26    30.15R
OFFUTT AFB     CLOUDY    55  55  99 N14G26    30.13R
LINCOLN        CLOUDY    55  49  80 N23       30.15R
NEBRASKA CITY  CLOUDY    61  58  91 N7        30.08S
BEATRICE       CLOUDY    62  58  89 N10       30.11R
FALLS CITY     PTSUNNY   64  61  90 NW6       30.06S

...NORTHERN KANSAS...

CITY           SKY/WX    TMP DP  RH WIND       PRES   REMARKS
GOODLAND       CLOUDY    53  52  96 N16       30.26R
HILL CITY      CLOUDY    58  54  86 N20G28    30.18R
NORTON         CLOUDY    54  45  71 N16       30.21R
PHILLIPSBURG   CLOUDY    55  52  88 N17       30.19R
SMITH CENTER   CLOUDY    55  52  88 N18G28    30.16R
BELOIT         CLOUDY    61  59  94 N12G22    30.10R
HAYS           CLOUDY    57  54  88 N15       30.13R
RUSSELL        FOG       59  58  96 N14       30.10R VSB 1
CONCORDIA      CLOUDY    60  60 100 N14       30.10R
SALINA         SUNNY     68  62  81 SW9       30.07R
TOPEKA         SUNNY     70  65  84 SW5       30.05S



USA.gov is the U.S. government's official web portal to all federal, state and local government web resources and services.